Time,TemperatureF,DewpointF,PressureIn,WindDirection,WindDirectionDegrees,WindSpeedMPH,WindSpeedGustMPH,Humidity,HourlyPrecipIn,Conditions,Clouds,dailyrainin,SoftwareType,DateUTC
2013-05-12 00:03:00,54.5,35.8,30.17,ESE,122,0.0,0.0,49,0.00,,,0.00,meteobridge,2013-05-12 06:03:00,
2013-05-12 00:08:00,54.1,36.0,30.17,ESE,122,0.0,0.0,50,0.00,,,0.00,meteobridge,2013-05-12 06:08:00,
2013-05-12 00:13:00,54.3,36.1,30.17,ESE,122,0.0,2.0,50,0.00,,,0.00,meteobridge,2013-05-12 06:13:00,
2013-05-12 00:18:00,54.7,36.0,30.17,ESE,122,0.0,0.9,49,0.00,,,0.00,meteobridge,2013-05-12 06:18:00,
2013-05-12 00:23:00,54.9,36.1,30.17,ESE,117,0.0,0.9,49,0.00,,,0.00,meteobridge,2013-05-12 06:23:00,
2013-05-12 00:28:00,54.9,35.6,30.17,ESE,123,0.9,2.0,48,0.00,,,0.00,meteobridge,2013-05-12 06:28:00,
2013-05-12 00:33:00,54.9,35.6,30.17,ESE,106,0.9,2.9,48,0.00,,,0.00,meteobridge,2013-05-12 06:33:00,
2013-05-12 00:39:00,54.7,35.4,30.17,ESE,115,0.0,0.9,48,0.00,,,0.00,meteobridge,2013-05-12 06:39:00,
2013-05-12 00:44:00,54.5,35.2,30.17,SE,127,0.0,2.0,48,0.00,,,0.00,meteobridge,2013-05-12 06:44:00,
2013-05-12 00:49:00,54.0,35.2,30.17,SE,127,2.0,2.0,49,0.00,,,0.00,meteobridge,2013-05-12 06:49:00,
2013-05-12 00:54:00,53.8,35.6,30.17,SE,127,0.0,0.9,50,0.00,,,0.00,meteobridge,2013-05-12 06:54:00,
2013-05-12 00:59:00,53.4,35.2,30.17,SSE,156,0.9,2.9,50,0.00,,,0.00,meteobridge,2013-05-12 06:59:00,
2013-05-12 01:04:00,53.2,35.1,30.17,SSE,155,0.0,2.0,50,0.00,,,0.00,meteobridge,2013-05-12 07:04:00,
2013-05-12 01:09:00,53.2,35.6,30.17,SSE,155,0.0,0.0,51,0.00,,,0.00,meteobridge,2013-05-12 07:09:00,
2013-05-12 01:14:00,52.9,35.2,30.17,SSE,155,0.0,0.0,51,0.00,,,0.00,meteobridge,2013-05-12 07:14:00,
2013-05-12 01:20:00,52.3,35.2,30.17,SSE,155,0.0,0.0,52,0.00,,,0.00,meteobridge,2013-05-12 07:20:00,
2013-05-12 01:25:00,51.6,35.6,30.17,SSE,155,0.0,0.0,54,0.00,,,0.00,meteobridge,2013-05-12 07:25:00,
2013-05-12 01:30:00,51.4,35.4,30.17,SSE,156,0.0,0.0,54,0.00,,,0.00,meteobridge,2013-05-12 07:30:00,
2013-05-12 01:35:00,51.1,35.4,30.17,SSE,156,0.0,0.0,55,0.00,,,0.00,meteobridge,2013-05-12 07:35:00,
2013-05-12 01:40:00,51.1,35.4,30.17,SSE,156,0.0,0.0,55,0.00,,,0.00,meteobridge,2013-05-12 07:40:00,
2013-05-12 01:45:00,50.5,35.4,30.17,SSE,156,0.0,0.0,56,0.00,,,0.00,meteobridge,2013-05-12 07:45:00,
2013-05-12 01:51:00,50.5,36.0,30.17,NE,44,0.0,0.9,57,0.00,,,0.00,meteobridge,2013-05-12 07:51:00,
2013-05-12 01:56:00,51.1,36.0,30.17,NE,44,0.0,0.9,56,0.00,,,0.00,meteobridge,2013-05-12 07:56:00,
2013-05-12 02:01:00,50.5,35.4,30.17,NE,44,0.0,0.0,56,0.00,,,0.00,meteobridge,2013-05-12 08:01:00,
2013-05-12 02:06:00,50.0,35.8,30.17,NE,44,0.0,0.0,58,0.00,,,0.00,meteobridge,2013-05-12 08:06:00,
2013-05-12 02:11:00,49.8,35.6,30.17,NE,44,0.0,0.0,58,0.00,,,0.00,meteobridge,2013-05-12 08:11:00,
2013-05-12 02:16:00,49.6,36.0,30.16,NE,44,0.0,0.0,59,0.00,,,0.00,meteobridge,2013-05-12 08:16:00,
2013-05-12 02:21:00,49.3,36.0,30.17,NE,44,0.0,0.9,60,0.00,,,0.00,meteobridge,2013-05-12 08:21:00,
2013-05-12 02:27:00,48.9,36.1,30.17,NE,44,0.0,0.0,61,0.00,,,0.00,meteobridge,2013-05-12 08:27:00,
2013-05-12 02:32:00,49.3,36.3,30.17,NE,44,0.0,0.0,61,0.00,,,0.00,meteobridge,2013-05-12 08:32:00,
2013-05-12 02:37:00,48.7,36.0,30.17,NE,44,0.0,0.0,61,0.00,,,0.00,meteobridge,2013-05-12 08:37:00,
2013-05-12 02:42:00,48.4,36.0,30.17,NE,44,0.0,0.0,62,0.00,,,0.00,meteobridge,2013-05-12 08:42:00,
2013-05-12 02:48:00,48.4,36.3,30.17,NE,44,0.0,0.0,63,0.00,,,0.00,meteobridge,2013-05-12 08:48:00,
2013-05-12 02:53:00,47.8,35.8,30.17,NE,44,0.0,0.0,63,0.00,,,0.00,meteobridge,2013-05-12 08:53:00,
2013-05-12 02:59:00,47.8,36.3,30.17,NE,44,0.0,0.0,64,0.00,,,0.00,meteobridge,2013-05-12 08:59:00,
2013-05-12 03:04:00,47.8,36.3,30.17,NE,44,0.0,0.0,64,0.00,,,0.00,meteobridge,2013-05-12 09:04:00,
2013-05-12 03:09:00,48.0,36.0,30.17,NE,44,0.0,0.0,63,0.00,,,0.00,meteobridge,2013-05-12 09:09:00,
2013-05-12 03:14:00,47.7,36.1,30.17,NE,44,0.0,0.0,64,0.00,,,0.00,meteobridge,2013-05-12 09:14:00,
2013-05-12 03:19:00,47.5,36.3,30.17,NE,44,0.0,0.0,65,0.00,,,0.00,meteobridge,2013-05-12 09:19:00,
2013-05-12 03:24:00,46.9,36.1,30.17,NE,44,0.0,0.0,66,0.00,,,0.00,meteobridge,2013-05-12 09:24:00,
2013-05-12 03:29:00,46.9,35.8,30.17,NE,44,0.0,0.0,65,0.00,,,0.00,meteobridge,2013-05-12 09:29:00,
2013-05-12 03:35:00,46.9,36.1,30.17,NE,44,0.0,0.0,66,0.00,,,0.00,meteobridge,2013-05-12 09:35:00,
2013-05-12 03:40:00,47.1,36.3,30.17,NE,44,0.0,0.0,66,0.00,,,0.00,meteobridge,2013-05-12 09:40:00,
2013-05-12 03:45:00,46.9,35.8,30.17,NE,44,0.0,0.0,65,0.00,,,0.00,meteobridge,2013-05-12 09:45:00,
2013-05-12 03:50:00,46.8,36.0,30.17,NE,44,0.0,0.0,66,0.00,,,0.00,meteobridge,2013-05-12 09:50:00,
2013-05-12 03:55:00,46.6,35.8,30.18,NE,44,0.0,0.0,66,0.00,,,0.00,meteobridge,2013-05-12 09:55:00,
2013-05-12 04:00:00,46.4,36.0,30.18,NE,44,0.0,0.0,67,0.00,,,0.00,meteobridge,2013-05-12 10:00:00,
2013-05-12 04:05:00,46.4,35.6,30.17,NE,44,0.0,0.0,66,0.00,,,0.00,meteobridge,2013-05-12 10:05:00,
2013-05-12 04:10:00,46.4,35.6,30.17,NE,44,0.0,0.0,66,0.00,,,0.00,meteobridge,2013-05-12 10:10:00,
2013-05-12 04:16:00,46.0,35.2,30.17,NE,44,0.0,0.0,66,0.00,,,0.00,meteobridge,2013-05-12 10:16:00,
2013-05-12 04:21:00,46.0,35.8,30.17,NE,44,0.0,0.0,67,0.00,,,0.00,meteobridge,2013-05-12 10:21:00,
2013-05-12 04:26:00,45.9,35.1,30.17,NE,44,0.0,0.0,66,0.00,,,0.00,meteobridge,2013-05-12 10:26:00,
2013-05-12 04:31:00,45.9,35.1,30.17,NE,44,0.0,0.0,66,0.00,,,0.00,meteobridge,2013-05-12 10:31:00,
2013-05-12 04:36:00,45.7,35.4,30.17,NE,44,0.0,0.0,67,0.00,,,0.00,meteobridge,2013-05-12 10:36:00,
2013-05-12 04:41:00,45.1,35.2,30.18,NE,44,0.0,0.0,68,0.00,,,0.00,meteobridge,2013-05-12 10:41:00,
2013-05-12 04:46:00,45.1,35.6,30.17,NE,44,0.0,0.0,69,0.00,,,0.00,meteobridge,2013-05-12 10:46:00,
2013-05-12 04:51:00,45.1,35.6,30.17,NE,44,0.0,0.0,69,0.00,,,0.00,meteobridge,2013-05-12 10:51:00,
2013-05-12 04:57:00,45.3,35.1,30.17,NE,44,0.0,0.0,67,0.00,,,0.00,meteobridge,2013-05-12 10:57:00,
2013-05-12 05:02:00,45.0,34.7,30.17,NE,44,0.0,0.0,67,0.00,,,0.00,meteobridge,2013-05-12 11:02:00,
2013-05-12 05:07:00,45.0,35.1,30.17,NE,44,0.0,0.0,68,0.00,,,0.00,meteobridge,2013-05-12 11:07:00,
2013-05-12 05:12:00,45.0,34.7,30.17,NE,44,0.0,0.0,67,0.00,,,0.00,meteobridge,2013-05-12 11:12:00,
2013-05-12 05:17:00,44.6,35.1,30.17,NE,44,0.0,0.0,69,0.00,,,0.00,meteobridge,2013-05-12 11:17:00,
2013-05-12 05:23:00,44.8,34.9,30.17,NE,44,0.0,0.0,68,0.00,,,0.00,meteobridge,2013-05-12 11:23:00,
2013-05-12 05:28:00,44.6,34.7,30.17,NE,44,0.0,0.0,68,0.00,,,0.00,meteobridge,2013-05-12 11:28:00,
2013-05-12 05:34:00,44.2,34.3,30.17,NE,44,0.0,0.0,68,0.00,,,0.00,meteobridge,2013-05-12 11:34:00,
2013-05-12 05:39:00,44.1,34.5,30.18,NE,44,0.0,0.0,69,0.00,,,0.00,meteobridge,2013-05-12 11:39:00,
2013-05-12 05:44:00,43.9,34.7,30.18,NE,44,0.0,0.0,70,0.00,,,0.00,meteobridge,2013-05-12 11:44:00,
2013-05-12 05:49:00,43.7,35.2,30.18,NE,44,0.0,0.0,72,0.00,,,0.00,meteobridge,2013-05-12 11:49:00,
2013-05-12 05:55:00,43.5,35.1,30.19,NE,44,0.0,0.0,72,0.00,,,0.00,meteobridge,2013-05-12 11:55:00,
2013-05-12 06:00:00,43.5,35.1,30.18,NE,44,0.0,0.0,72,0.00,,,0.00,meteobridge,2013-05-12 12:00:00,
2013-05-12 06:05:00,43.5,35.1,30.18,NE,44,0.0,0.0,72,0.00,,,0.00,meteobridge,2013-05-12 12:05:00,
2013-05-12 06:10:00,43.3,34.5,30.19,NE,44,0.0,0.0,71,0.00,,,0.00,meteobridge,2013-05-12 12:10:00,
2013-05-12 06:15:00,43.3,34.5,30.19,NE,44,0.0,0.0,71,0.00,,,0.00,meteobridge,2013-05-12 12:15:00,
2013-05-12 06:20:00,43.5,35.1,30.19,NE,44,0.0,0.0,72,0.00,,,0.00,meteobridge,2013-05-12 12:20:00,
2013-05-12 06:25:00,43.5,34.7,30.19,NE,44,0.0,0.0,71,0.00,,,0.00,meteobridge,2013-05-12 12:25:00,
2013-05-12 06:30:00,43.5,34.7,30.19,NE,44,0.0,0.0,71,0.00,,,0.00,meteobridge,2013-05-12 12:30:00,
2013-05-12 06:36:00,43.9,34.7,30.19,NE,44,0.0,0.0,70,0.00,,,0.00,meteobridge,2013-05-12 12:36:00,
2013-05-12 06:41:00,44.1,34.9,30.19,NE,44,0.0,0.0,70,0.00,,,0.00,meteobridge,2013-05-12 12:41:00,
2013-05-12 06:46:00,44.4,35.2,30.19,NE,44,0.0,0.0,70,0.00,,,0.00,meteobridge,2013-05-12 12:46:00,
2013-05-12 06:51:00,45.1,35.6,30.19,NE,44,0.0,0.0,69,0.00,,,0.00,meteobridge,2013-05-12 12:51:00,
2013-05-12 06:56:00,45.9,36.0,30.20,NE,44,0.0,0.0,68,0.00,,,0.00,meteobridge,2013-05-12 12:56:00,
2013-05-12 07:01:00,46.8,35.6,30.20,NE,44,0.0,0.0,65,0.00,,,0.00,meteobridge,2013-05-12 13:01:00,
2013-05-12 07:06:00,47.7,35.6,30.20,NE,44,0.0,0.0,63,0.00,,,0.00,meteobridge,2013-05-12 13:06:00,
2013-05-12 07:11:00,48.0,35.6,30.20,NE,44,0.9,0.9,62,0.00,,,0.00,meteobridge,2013-05-12 13:11:00,
2013-05-12 07:16:00,48.4,34.7,30.20,NE,44,0.0,0.0,59,0.00,,,0.00,meteobridge,2013-05-12 13:16:00,
2013-05-12 07:21:00,49.1,34.5,30.20,NE,43,0.0,0.9,57,0.00,,,0.00,meteobridge,2013-05-12 13:21:00,
2013-05-12 07:27:00,49.6,34.5,30.20,NE,43,0.0,0.0,56,0.00,,,0.00,meteobridge,2013-05-12 13:27:00,
2013-05-12 07:32:00,50.2,34.7,30.20,NE,43,0.9,0.9,55,0.00,,,0.00,meteobridge,2013-05-12 13:32:00,
2013-05-12 07:37:00,50.5,34.5,30.20,NE,43,0.0,0.9,54,0.00,,,0.00,meteobridge,2013-05-12 13:37:00,
2013-05-12 07:42:00,51.4,34.9,30.20,NE,42,0.9,2.0,53,0.00,,,0.00,meteobridge,2013-05-12 13:42:00,
2013-05-12 07:47:00,52.3,34.2,30.20,NNE,24,0.9,2.0,50,0.00,,,0.00,meteobridge,2013-05-12 13:47:00,
2013-05-12 07:52:00,52.9,34.2,30.20,NNE,24,0.9,2.0,49,0.00,,,0.00,meteobridge,2013-05-12 13:52:00,
2013-05-12 07:57:00,53.2,34.5,30.20,NNE,23,0.0,0.0,49,0.00,,,0.00,meteobridge,2013-05-12 13:57:00,
2013-05-12 08:03:00,54.0,35.2,30.20,NNE,23,0.0,0.0,49,0.00,,,0.00,meteobridge,2013-05-12 14:03:00,
2013-05-12 08:08:00,54.5,34.7,30.19,NNE,15,0.0,0.9,47,0.00,,,0.00,meteobridge,2013-05-12 14:08:00,
2013-05-12 08:13:00,55.0,34.7,30.19,NNE,14,0.0,2.9,46,0.00,,,0.00,meteobridge,2013-05-12 14:13:00,
2013-05-12 08:18:00,55.6,35.6,30.20,NNE,13,0.0,0.9,47,0.00,,,0.00,meteobridge,2013-05-12 14:18:00,
2013-05-12 08:23:00,55.8,35.2,30.19,NNW,328,0.9,2.0,46,0.00,,,0.00,meteobridge,2013-05-12 14:23:00,
2013-05-12 08:28:00,56.3,35.8,30.19,WNW,298,0.9,0.9,46,0.00,,,0.00,meteobridge,2013-05-12 14:28:00,
2013-05-12 08:33:00,56.5,35.4,30.20,West,267,0.9,2.0,45,0.00,,,0.00,meteobridge,2013-05-12 14:33:00,
2013-05-12 08:38:00,56.7,35.6,30.19,West,275,0.0,2.0,45,0.00,,,0.00,meteobridge,2013-05-12 14:38:00,
2013-05-12 08:43:00,57.4,35.6,30.20,NNW,336,2.9,2.9,44,0.00,,,0.00,meteobridge,2013-05-12 14:43:00,
2013-05-12 08:48:00,57.7,35.4,30.20,NNW,330,0.0,2.0,43,0.00,,,0.00,meteobridge,2013-05-12 14:48:00,
2013-05-12 08:53:00,58.6,37.4,30.19,NNW,328,0.0,0.9,45,0.00,,,0.00,meteobridge,2013-05-12 14:53:00,
2013-05-12 08:59:00,58.6,36.1,30.19,NW,321,0.0,0.9,43,0.00,,,0.00,meteobridge,2013-05-12 14:59:00,
2013-05-12 09:04:00,59.4,35.6,30.19,West,281,0.0,0.9,41,0.00,,,0.00,meteobridge,2013-05-12 15:04:00,
2013-05-12 09:09:00,60.1,35.6,30.19,NNW,346,0.9,0.9,40,0.00,,,0.00,meteobridge,2013-05-12 15:09:00,
2013-05-12 09:14:00,60.6,36.1,30.19,NNW,345,0.0,0.9,40,0.00,,,0.00,meteobridge,2013-05-12 15:14:00,
2013-05-12 09:19:00,61.2,35.4,30.19,North,355,2.9,4.0,38,0.00,,,0.00,meteobridge,2013-05-12 15:19:00,
2013-05-12 09:24:00,61.3,35.6,30.19,NNW,334,0.9,2.9,38,0.00,,,0.00,meteobridge,2013-05-12 15:24:00,
2013-05-12 09:29:00,62.1,35.4,30.19,West,276,0.0,2.0,37,0.00,,,0.00,meteobridge,2013-05-12 15:29:00,
2013-05-12 09:34:00,62.6,34.5,30.18,NW,319,0.0,2.0,35,0.00,,,0.00,meteobridge,2013-05-12 15:34:00,
2013-05-12 09:39:00,62.6,36.0,30.18,NNW,341,2.0,2.9,37,0.00,,,0.00,meteobridge,2013-05-12 15:39:00,
2013-05-12 09:44:00,63.5,35.4,30.18,West,280,2.0,2.0,35,0.00,,,0.00,meteobridge,2013-05-12 15:44:00,
2013-05-12 09:49:00,63.7,34.7,30.17,SW,228,0.0,2.0,34,0.00,,,0.00,meteobridge,2013-05-12 15:49:00,
2013-05-12 09:55:00,64.0,35.1,30.18,NNW,329,0.0,2.9,34,0.00,,,0.00,meteobridge,2013-05-12 15:55:00,
2013-05-12 10:00:00,65.1,35.2,30.17,West,279,0.9,2.0,33,0.00,,,0.00,meteobridge,2013-05-12 16:00:00,
2013-05-12 10:05:00,64.8,34.2,30.18,WNW,298,0.0,2.9,32,0.00,,,0.00,meteobridge,2013-05-12 16:05:00,
2013-05-12 10:10:00,64.4,35.4,30.17,SSW,213,4.0,4.0,34,0.00,,,0.00,meteobridge,2013-05-12 16:10:00,
2013-05-12 10:15:00,65.5,34.9,30.17,WNW,296,2.0,2.0,32,0.00,,,0.00,meteobridge,2013-05-12 16:15:00,
2013-05-12 10:20:00,65.5,34.0,30.17,NNW,343,4.9,6.0,31,0.00,,,0.00,meteobridge,2013-05-12 16:20:00,
2013-05-12 10:25:00,65.1,33.8,30.17,NE,55,0.0,4.0,31,0.00,,,0.00,meteobridge,2013-05-12 16:25:00,
2013-05-12 10:30:00,66.4,34.0,30.17,NW,311,0.9,4.0,30,0.00,,,0.00,meteobridge,2013-05-12 16:30:00,
2013-05-12 10:35:00,65.8,34.3,30.17,NW,311,2.9,2.9,31,0.00,,,0.00,meteobridge,2013-05-12 16:35:00,
2013-05-12 10:40:00,66.4,34.0,30.17,WNW,289,0.0,2.0,30,0.00,,,0.00,meteobridge,2013-05-12 16:40:00,
2013-05-12 10:45:00,67.3,34.7,30.16,WSW,248,0.9,2.0,30,0.00,,,0.00,meteobridge,2013-05-12 16:45:00,
2013-05-12 10:50:00,67.5,34.2,30.16,SSW,213,2.9,4.9,29,0.00,,,0.00,meteobridge,2013-05-12 16:50:00,
2013-05-12 10:55:00,67.6,32.5,30.16,WNW,290,0.0,2.0,27,0.00,,,0.00,meteobridge,2013-05-12 16:55:00,
2013-05-12 11:00:00,67.6,33.4,30.16,South,191,4.0,4.0,28,0.00,,,0.00,meteobridge,2013-05-12 17:00:00,
2013-05-12 11:05:00,67.8,33.4,30.16,SE,130,2.0,2.0,28,0.00,,,0.00,meteobridge,2013-05-12 17:05:00,
2013-05-12 11:10:00,68.7,34.3,30.16,WSW,238,0.0,2.9,28,0.00,,,0.00,meteobridge,2013-05-12 17:10:00,
2013-05-12 11:15:00,68.7,33.4,30.16,SW,228,2.0,4.0,27,0.00,,,0.00,meteobridge,2013-05-12 17:15:00,
2013-05-12 11:20:00,68.2,32.9,30.15,SSE,161,0.9,2.0,27,0.00,,,0.00,meteobridge,2013-05-12 17:20:00,
2013-05-12 11:26:00,69.6,33.3,30.15,North,5,2.0,6.0,26,0.00,,,0.00,meteobridge,2013-05-12 17:26:00,
2013-05-12 11:31:00,69.3,32.0,30.15,West,272,0.0,4.9,25,0.00,,,0.00,meteobridge,2013-05-12 17:31:00,
2013-05-12 11:36:00,68.5,32.4,30.14,SW,229,4.0,4.9,26,0.00,,,0.00,meteobridge,2013-05-12 17:36:00,
2013-05-12 11:41:00,68.7,33.4,30.14,NNE,28,0.9,2.9,27,0.00,,,0.00,meteobridge,2013-05-12 17:41:00,
2013-05-12 11:46:00,69.6,33.3,30.14,SSW,209,4.0,4.9,26,0.00,,,0.00,meteobridge,2013-05-12 17:46:00,
2013-05-12 11:51:00,70.2,33.6,30.14,NW,321,2.9,4.9,26,0.00,,,0.00,meteobridge,2013-05-12 17:51:00,
2013-05-12 11:56:00,70.2,32.7,30.13,NW,313,0.9,2.9,25,0.00,,,0.00,meteobridge,2013-05-12 17:56:00,
2013-05-12 12:01:00,70.9,33.3,30.12,East,86,0.9,4.0,25,0.00,,,0.00,meteobridge,2013-05-12 18:01:00,
2013-05-12 12:06:00,71.6,34.0,30.12,NNW,345,2.9,4.9,25,0.00,,,0.00,meteobridge,2013-05-12 18:06:00,
2013-05-12 12:11:00,72.3,33.4,30.11,SW,220,2.0,4.9,24,0.00,,,0.00,meteobridge,2013-05-12 18:11:00,
2013-05-12 12:16:00,70.9,32.4,30.11,South,169,2.9,4.9,24,0.00,,,0.00,meteobridge,2013-05-12 18:16:00,
2013-05-12 12:21:00,71.1,33.4,30.11,South,183,6.9,6.9,25,0.00,,,0.00,meteobridge,2013-05-12 18:21:00,
2013-05-12 12:26:00,70.5,34.0,30.10,NW,305,4.0,4.0,26,0.00,,,0.00,meteobridge,2013-05-12 18:26:00,
2013-05-12 12:31:00,72.3,33.4,30.10,SW,229,4.0,8.9,24,0.00,,,0.00,meteobridge,2013-05-12 18:31:00,
2013-05-12 12:36:00,71.8,33.1,30.10,SSE,157,0.9,2.9,24,0.00,,,0.00,meteobridge,2013-05-12 18:36:00,
2013-05-12 12:41:00,73.0,33.1,30.09,NNW,336,0.9,2.9,23,0.00,,,0.00,meteobridge,2013-05-12 18:41:00,
2013-05-12 12:46:00,73.6,33.4,30.09,WNW,302,0.9,2.9,23,0.00,,,0.00,meteobridge,2013-05-12 18:46:00,
2013-05-12 12:51:00,73.0,32.0,30.09,SSW,209,2.9,6.0,22,0.00,,,0.00,meteobridge,2013-05-12 18:51:00,
2013-05-12 12:56:00,72.3,32.4,30.09,WSW,238,0.0,2.9,23,0.00,,,0.00,meteobridge,2013-05-12 18:56:00,
2013-05-12 13:01:00,74.1,31.6,30.08,WNW,290,0.9,4.9,21,0.00,,,0.00,meteobridge,2013-05-12 19:01:00,
2013-05-12 13:07:00,72.9,31.8,30.08,WNW,290,0.9,4.9,22,0.00,,,0.00,meteobridge,2013-05-12 19:07:00,
2013-05-12 13:12:00,74.5,34.3,30.08,North,350,0.0,4.0,23,0.00,,,0.00,meteobridge,2013-05-12 19:12:00,
2013-05-12 13:17:00,74.1,31.6,30.07,ENE,59,2.0,6.0,21,0.00,,,0.00,meteobridge,2013-05-12 19:17:00,
2013-05-12 13:22:00,75.4,32.7,30.07,South,175,2.0,4.0,21,0.00,,,0.00,meteobridge,2013-05-12 19:22:00,
2013-05-12 13:27:00,76.6,32.5,30.06,NE,55,6.0,8.9,20,0.00,,,0.00,meteobridge,2013-05-12 19:27:00,
2013-05-12 13:32:00,75.4,30.2,30.07,North,5,2.9,4.9,19,0.00,,,0.00,meteobridge,2013-05-12 19:32:00,
2013-05-12 13:37:00,74.1,30.6,30.06,SSW,202,2.9,6.0,20,0.00,,,0.00,meteobridge,2013-05-12 19:37:00,
2013-05-12 13:42:00,75.6,30.4,30.06,North,9,0.0,4.9,19,0.00,,,0.00,meteobridge,2013-05-12 19:42:00,
2013-05-12 13:47:00,75.7,30.6,30.06,North,9,2.0,6.0,19,0.00,,,0.00,meteobridge,2013-05-12 19:47:00,
2013-05-12 13:52:00,75.7,31.8,30.05,NNW,340,2.0,6.0,20,0.00,,,0.00,meteobridge,2013-05-12 19:52:00,
2013-05-12 13:57:00,77.5,30.7,30.05,NNW,327,0.0,8.1,18,0.00,,,0.00,meteobridge,2013-05-12 19:57:00,
2013-05-12 14:02:00,76.5,29.8,30.05,NE,55,2.9,4.0,18,0.00,,,0.00,meteobridge,2013-05-12 20:02:00,
2013-05-12 14:07:00,76.6,30.0,30.04,NNE,19,4.9,8.1,18,0.00,,,0.00,meteobridge,2013-05-12 20:07:00,
2013-05-12 14:12:00,77.5,29.3,30.04,NNW,342,0.9,4.0,17,0.00,,,0.00,meteobridge,2013-05-12 20:12:00,
2013-05-12 14:18:00,76.6,30.0,30.04,NNW,344,2.0,4.0,18,0.00,,,0.00,meteobridge,2013-05-12 20:18:00,
2013-05-12 14:23:00,77.9,30.9,30.04,WNW,303,2.9,2.9,18,0.00,,,0.00,meteobridge,2013-05-12 20:23:00,
2013-05-12 14:28:00,78.3,29.8,30.03,South,171,0.0,2.9,17,0.00,,,0.00,meteobridge,2013-05-12 20:28:00,
2013-05-12 14:33:00,78.3,28.4,30.03,WNW,303,0.9,2.9,16,0.00,,,0.00,meteobridge,2013-05-12 20:33:00,
2013-05-12 14:38:00,79.2,27.5,30.03,NNE,19,4.0,8.9,15,0.00,,,0.00,meteobridge,2013-05-12 20:38:00,
2013-05-12 14:43:00,77.4,26.1,30.03,South,179,0.9,4.9,15,0.00,,,0.00,meteobridge,2013-05-12 20:43:00,
2013-05-12 14:48:00,78.6,28.8,30.02,North,0,0.9,4.9,16,0.00,,,0.00,meteobridge,2013-05-12 20:48:00,
2013-05-12 14:53:00,77.9,26.6,30.02,SW,233,4.0,4.0,15,0.00,,,0.00,meteobridge,2013-05-12 20:53:00,
2013-05-12 14:58:00,78.4,27.0,30.01,NE,42,2.0,2.9,15,0.00,,,0.00,meteobridge,2013-05-12 20:58:00,
2013-05-12 15:03:00,79.2,25.9,30.01,NE,48,6.9,6.9,14,0.00,,,0.00,meteobridge,2013-05-12 21:03:00,
2013-05-12 15:08:00,79.3,26.1,30.01,ENE,64,4.0,6.9,14,0.00,,,0.00,meteobridge,2013-05-12 21:08:00,
2013-05-12 15:13:00,79.2,25.9,30.01,NW,325,4.0,10.1,14,0.00,,,0.00,meteobridge,2013-05-12 21:13:00,
2013-05-12 15:18:00,79.5,26.1,30.00,North,355,6.0,6.9,14,0.00,,,0.00,meteobridge,2013-05-12 21:18:00,
2013-05-12 15:23:00,78.6,23.7,30.00,SE,132,6.9,6.9,13,0.00,,,0.00,meteobridge,2013-05-12 21:23:00,
2013-05-12 15:28:00,79.3,26.1,29.99,SW,229,4.0,4.0,14,0.00,,,0.00,meteobridge,2013-05-12 21:28:00,
2013-05-12 15:33:00,79.3,27.7,29.99,WSW,243,0.9,6.0,15,0.00,,,0.00,meteobridge,2013-05-12 21:33:00,
2013-05-12 15:38:00,79.3,29.3,29.99,NNW,346,0.9,2.0,16,0.00,,,0.00,meteobridge,2013-05-12 21:38:00,
2013-05-12 15:43:00,80.4,28.6,29.98,SW,215,2.0,4.9,15,0.00,,,0.00,meteobridge,2013-05-12 21:43:00,
2013-05-12 15:48:00,79.5,27.9,29.98,WSW,244,2.9,8.1,15,0.00,,,0.00,meteobridge,2013-05-12 21:48:00,
2013-05-12 15:53:00,80.2,28.4,29.98,WNW,292,2.0,8.1,15,0.00,,,0.00,meteobridge,2013-05-12 21:53:00,
2013-05-12 15:58:00,80.1,28.2,29.98,NNE,24,2.0,6.0,15,0.00,,,0.00,meteobridge,2013-05-12 21:58:00,
2013-05-12 16:03:00,80.1,26.6,29.98,SSE,154,4.0,6.0,14,0.00,,,0.00,meteobridge,2013-05-12 22:03:00,
2013-05-12 16:09:00,80.2,28.4,29.97,WNW,284,2.9,6.9,15,0.00,,,0.00,meteobridge,2013-05-12 22:09:00,
2013-05-12 16:14:00,80.8,28.8,29.97,SW,227,4.9,8.1,15,0.00,,,0.00,meteobridge,2013-05-12 22:14:00,
2013-05-12 16:19:00,81.7,27.9,29.97,SSW,207,4.0,6.0,14,0.00,,,0.00,meteobridge,2013-05-12 22:19:00,
2013-05-12 16:24:00,80.8,28.8,29.96,WNW,284,0.0,2.9,15,0.00,,,0.00,meteobridge,2013-05-12 22:24:00,
2013-05-12 16:29:00,81.9,29.7,29.96,NNW,329,2.0,2.9,15,0.00,,,0.00,meteobridge,2013-05-12 22:29:00,
2013-05-12 16:34:00,81.9,26.2,29.96,SW,224,0.0,4.9,13,0.00,,,0.00,meteobridge,2013-05-12 22:34:00,
2013-05-12 16:39:00,80.8,27.1,29.96,SW,227,4.0,4.9,14,0.00,,,0.00,meteobridge,2013-05-12 22:39:00,
2013-05-12 16:44:00,80.4,28.6,29.96,WNW,296,2.0,4.9,15,0.00,,,0.00,meteobridge,2013-05-12 22:44:00,
2013-05-12 16:49:00,79.9,28.0,29.96,SW,225,6.0,6.0,15,0.00,,,0.00,meteobridge,2013-05-12 22:49:00,
2013-05-12 16:54:00,79.5,26.1,29.96,SSW,207,2.0,4.0,14,0.00,,,0.00,meteobridge,2013-05-12 22:54:00,
2013-05-12 16:59:00,78.6,28.8,29.97,SE,141,6.9,11.0,16,0.00,,,0.00,meteobridge,2013-05-12 22:59:00,
2013-05-12 17:04:00,77.5,30.7,29.97,SSW,194,6.9,8.9,18,0.00,,,0.00,meteobridge,2013-05-12 23:04:00,
2013-05-12 17:09:00,76.3,29.7,29.96,East,94,4.9,8.9,18,0.00,,,0.00,meteobridge,2013-05-12 23:09:00,
2013-05-12 17:14:00,75.9,29.3,29.96,SE,146,4.9,10.1,18,0.00,,,0.00,meteobridge,2013-05-12 23:14:00,
2013-05-12 17:19:00,75.7,30.6,29.96,SE,139,0.9,4.0,19,0.00,,,0.00,meteobridge,2013-05-12 23:19:00,
2013-05-12 17:24:00,75.4,28.9,29.96,East,100,4.9,6.9,18,0.00,,,0.00,meteobridge,2013-05-12 23:24:00,
2013-05-12 17:29:00,75.0,28.6,29.96,SE,130,0.0,4.9,18,0.00,,,0.00,meteobridge,2013-05-12 23:29:00,
2013-05-12 17:34:00,75.0,28.6,29.97,SSE,164,2.0,2.9,18,0.00,,,0.00,meteobridge,2013-05-12 23:34:00,
2013-05-12 17:39:00,74.8,29.8,29.97,ESE,120,4.0,4.9,19,0.00,,,0.00,meteobridge,2013-05-12 23:39:00,
2013-05-12 17:44:00,74.8,29.8,29.97,North,0,0.0,2.9,19,0.00,,,0.00,meteobridge,2013-05-12 23:44:00,
2013-05-12 17:49:00,74.8,29.8,29.97,NE,50,0.9,4.0,19,0.00,,,0.00,meteobridge,2013-05-12 23:49:00,
2013-05-12 17:54:00,74.7,29.7,29.97,ENE,78,2.0,4.0,19,0.00,,,0.00,meteobridge,2013-05-12 23:54:00,
2013-05-12 18:00:00,74.7,30.9,29.97,NE,40,2.9,4.9,20,0.00,,,0.00,meteobridge,2013-05-13 00:00:00,
2013-05-12 18:05:00,74.5,29.5,29.96,ESE,105,0.0,2.0,19,0.00,,,0.00,meteobridge,2013-05-13 00:05:00,
2013-05-12 18:10:00,75.0,28.6,29.96,WNW,293,4.0,6.9,18,0.00,,,0.00,meteobridge,2013-05-13 00:10:00,
2013-05-12 18:15:00,74.7,28.4,29.96,South,187,4.9,8.9,18,0.00,,,0.00,meteobridge,2013-05-13 00:15:00,
2013-05-12 18:20:00,74.1,29.3,29.95,SSE,150,2.0,4.9,19,0.00,,,0.00,meteobridge,2013-05-13 00:20:00,
2013-05-12 18:25:00,74.3,29.3,29.95,ESE,111,0.0,2.0,19,0.00,,,0.00,meteobridge,2013-05-13 00:25:00,
2013-05-12 18:30:00,74.7,28.4,29.95,ENE,57,0.9,4.0,18,0.00,,,0.00,meteobridge,2013-05-13 00:30:00,
2013-05-12 18:35:00,75.2,28.8,29.95,NE,49,0.0,0.9,18,0.00,,,0.00,meteobridge,2013-05-13 00:35:00,
2013-05-12 18:40:00,74.8,29.8,29.95,SSE,167,0.0,2.9,19,0.00,,,0.00,meteobridge,2013-05-13 00:40:00,
2013-05-12 18:46:00,74.8,29.8,29.95,WSW,239,2.0,2.9,19,0.00,,,0.00,meteobridge,2013-05-13 00:46:00,
2013-05-12 18:51:00,74.7,29.7,29.95,WSW,246,0.9,2.9,19,0.00,,,0.00,meteobridge,2013-05-13 00:51:00,
2013-05-12 18:56:00,74.1,29.3,29.95,WSW,238,2.9,4.0,19,0.00,,,0.00,meteobridge,2013-05-13 00:56:00,
2013-05-12 19:01:00,74.1,29.3,29.95,SW,224,2.0,2.9,19,0.00,,,0.00,meteobridge,2013-05-13 01:01:00,
2013-05-12 19:06:00,73.9,29.1,29.95,South,190,0.0,0.0,19,0.00,,,0.00,meteobridge,2013-05-13 01:06:00,
2013-05-12 19:11:00,73.6,30.0,29.95,SW,217,0.0,2.0,20,0.00,,,0.00,meteobridge,2013-05-13 01:11:00,
2013-05-12 19:16:00,73.2,29.7,29.95,SW,215,0.9,0.9,20,0.00,,,0.00,meteobridge,2013-05-13 01:16:00,
2013-05-12 19:21:00,73.0,29.7,29.95,SW,217,0.0,0.0,20,0.00,,,0.00,meteobridge,2013-05-13 01:21:00,
2013-05-12 19:26:00,72.9,29.5,29.95,SSE,167,0.0,0.9,20,0.00,,,0.00,meteobridge,2013-05-13 01:26:00,
2013-05-12 19:31:00,72.7,29.3,29.95,South,176,0.9,2.9,20,0.00,,,0.00,meteobridge,2013-05-13 01:31:00,
2013-05-12 19:36:00,72.3,30.2,29.95,South,178,2.0,2.0,21,0.00,,,0.00,meteobridge,2013-05-13 01:36:00,
2013-05-12 19:41:00,72.0,29.8,29.95,SSW,213,2.0,2.0,21,0.00,,,0.00,meteobridge,2013-05-13 01:41:00,
2013-05-12 19:46:00,71.4,29.5,29.95,SSW,213,0.0,0.0,21,0.00,,,0.00,meteobridge,2013-05-13 01:46:00,
2013-05-12 19:52:00,71.2,30.4,29.96,SW,214,0.0,0.0,22,0.00,,,0.00,meteobridge,2013-05-13 01:52:00,
2013-05-12 19:57:00,70.7,31.1,29.95,SW,214,0.0,0.9,23,0.00,,,0.00,meteobridge,2013-05-13 01:57:00,
2013-05-12 20:02:00,70.2,31.6,29.96,SW,214,0.0,0.0,24,0.00,,,0.00,meteobridge,2013-05-13 02:02:00,
2013-05-12 20:07:00,69.6,31.3,29.96,SW,214,0.0,0.9,24,0.00,,,0.00,meteobridge,2013-05-13 02:07:00,
2013-05-12 20:13:00,69.4,31.1,29.96,SW,214,0.0,0.0,24,0.00,,,0.00,meteobridge,2013-05-13 02:13:00,
2013-05-12 20:18:00,69.1,32.7,29.96,SW,214,0.0,0.0,26,0.00,,,0.00,meteobridge,2013-05-13 02:18:00,
2013-05-12 20:23:00,68.4,33.1,29.96,SW,214,0.0,0.0,27,0.00,,,0.00,meteobridge,2013-05-13 02:23:00,
2013-05-12 20:29:00,67.6,32.5,29.96,SW,214,0.0,0.0,27,0.00,,,0.00,meteobridge,2013-05-13 02:29:00,
2013-05-12 20:34:00,67.5,32.4,29.96,SW,214,0.0,0.0,27,0.00,,,0.00,meteobridge,2013-05-13 02:34:00,
2013-05-12 20:40:00,67.5,32.4,29.96,SW,214,0.0,0.0,27,0.00,,,0.00,meteobridge,2013-05-13 02:40:00,
2013-05-12 20:45:00,67.6,32.5,29.97,SW,214,0.0,0.0,27,0.00,,,0.00,meteobridge,2013-05-13 02:45:00,
2013-05-12 20:50:00,67.6,32.5,29.97,SW,214,0.0,0.0,27,0.00,,,0.00,meteobridge,2013-05-13 02:50:00,
2013-05-12 20:55:00,67.3,32.2,29.97,SW,214,0.0,0.0,27,0.00,,,0.00,meteobridge,2013-05-13 02:55:00,
2013-05-12 21:00:00,66.9,32.7,29.97,SW,214,0.0,0.0,28,0.00,,,0.00,meteobridge,2013-05-13 03:00:00,
2013-05-12 21:05:00,66.7,32.5,29.97,SW,214,0.0,0.0,28,0.00,,,0.00,meteobridge,2013-05-13 03:05:00,
2013-05-12 21:10:00,66.4,33.1,29.97,SW,214,0.0,0.0,29,0.00,,,0.00,meteobridge,2013-05-13 03:10:00,
2013-05-12 21:16:00,66.0,32.9,29.97,SW,214,0.0,0.0,29,0.00,,,0.00,meteobridge,2013-05-13 03:16:00,
2013-05-12 21:21:00,65.8,32.7,29.97,SW,214,0.0,0.9,29,0.00,,,0.00,meteobridge,2013-05-13 03:21:00,
2013-05-12 21:26:00,66.4,32.4,29.98,SSE,162,0.0,0.9,28,0.00,,,0.00,meteobridge,2013-05-13 03:26:00,
2013-05-12 21:31:00,66.4,32.4,29.98,SSE,162,0.0,0.0,28,0.00,,,0.00,meteobridge,2013-05-13 03:31:00,
2013-05-12 21:36:00,66.4,32.4,29.98,SSE,162,0.0,0.9,28,0.00,,,0.00,meteobridge,2013-05-13 03:36:00,
2013-05-12 21:42:00,66.2,32.2,29.98,SSE,162,0.0,0.0,28,0.00,,,0.00,meteobridge,2013-05-13 03:42:00,
2013-05-12 21:47:00,66.0,32.0,29.98,SE,131,2.0,2.0,28,0.00,,,0.00,meteobridge,2013-05-13 03:47:00,
2013-05-12 21:52:00,66.0,32.0,29.98,ESE,105,0.9,0.9,28,0.00,,,0.00,meteobridge,2013-05-13 03:52:00,
2013-05-12 21:57:00,66.0,32.0,29.99,ESE,107,0.9,0.9,28,0.00,,,0.00,meteobridge,2013-05-13 03:57:00,
2013-05-12 22:01:00,65.8,31.8,29.99,ESE,121,0.9,2.0,28,0.00,,,0.00,meteobridge,2013-05-13 04:01:00,
2013-05-12 22:07:00,65.7,31.6,29.99,ESE,109,0.0,0.0,28,0.00,,,0.00,meteobridge,2013-05-13 04:07:00,
2013-05-12 22:12:00,64.9,32.0,29.99,ESE,114,0.0,2.0,29,0.00,,,0.00,meteobridge,2013-05-13 04:12:00,
2013-05-12 22:17:00,64.9,32.0,29.99,SE,131,0.9,2.0,29,0.00,,,0.00,meteobridge,2013-05-13 04:17:00,
2013-05-12 22:22:00,64.6,31.6,29.99,SE,131,0.0,0.9,29,0.00,,,0.00,meteobridge,2013-05-13 04:22:00,
2013-05-12 22:27:00,64.2,31.3,29.99,SE,127,2.0,2.0,29,0.00,,,0.00,meteobridge,2013-05-13 04:27:00,
2013-05-12 22:32:00,64.2,31.3,29.99,SE,146,0.0,0.9,29,0.00,,,0.00,meteobridge,2013-05-13 04:32:00,
2013-05-12 22:37:00,64.0,31.1,29.99,SE,146,0.0,0.9,29,0.00,,,0.00,meteobridge,2013-05-13 04:37:00,
2013-05-12 22:42:00,63.7,31.6,29.99,SE,146,0.0,0.9,30,0.00,,,0.00,meteobridge,2013-05-13 04:42:00,
2013-05-12 22:48:00,63.1,31.3,29.99,SE,146,0.0,0.9,30,0.00,,,0.00,meteobridge,2013-05-13 04:48:00,
2013-05-12 22:53:00,63.0,31.8,29.99,SE,146,0.9,0.9,31,0.00,,,0.00,meteobridge,2013-05-13 04:53:00,
2013-05-12 22:58:00,62.8,31.6,29.99,SE,146,0.0,0.0,31,0.00,,,0.00,meteobridge,2013-05-13 04:58:00,
2013-05-12 23:03:00,62.4,31.5,30.00,SE,146,0.9,0.9,31,0.00,,,0.00,meteobridge,2013-05-13 05:03:00,
2013-05-12 23:08:00,62.4,31.5,30.00,South,178,4.0,10.1,31,0.00,,,0.00,meteobridge,2013-05-13 05:08:00,
2013-05-12 23:13:00,63.5,30.7,30.00,SSE,157,2.0,4.0,29,0.00,,,0.00,meteobridge,2013-05-13 05:13:00,
2013-05-12 23:18:00,64.0,31.1,30.00,SSE,155,0.9,2.9,29,0.00,,,0.00,meteobridge,2013-05-13 05:18:00,
2013-05-12 23:23:00,63.9,30.9,30.01,SSE,151,0.0,2.0,29,0.00,,,0.00,meteobridge,2013-05-13 05:23:00,
2013-05-12 23:28:00,63.3,30.6,30.01,SSE,149,0.9,4.0,29,0.00,,,0.00,meteobridge,2013-05-13 05:28:00,
2013-05-12 23:34:00,63.0,30.2,30.01,SSE,151,2.9,2.9,29,0.00,,,0.00,meteobridge,2013-05-13 05:34:00,
2013-05-12 23:39:00,62.4,30.6,30.01,SSE,151,0.0,2.0,30,0.00,,,0.00,meteobridge,2013-05-13 05:39:00,
2013-05-12 23:44:00,62.2,30.4,30.01,SSE,151,0.0,2.0,30,0.00,,,0.00,meteobridge,2013-05-13 05:44:00,
2013-05-12 23:50:00,61.7,30.7,30.01,SSE,151,0.9,0.9,31,0.00,,,0.00,meteobridge,2013-05-13 05:50:00,
2013-05-12 23:55:00,61.2,31.1,30.01,SSE,151,0.0,0.0,32,0.00,,,0.00,meteobridge,2013-05-13 05:55:00,